Vertical_Velocity
1 1 -0 1 1 1 5 6 14 -3 1 5 5 6 5 5 8 -1 6 7 4 5
1 2 2 1 0 -1 -0 -0 -2 12 -8 -1 -0 5 6 6 5 5 7 5 6 7
2 1 1 0 0 -1 -1 0 3 6 4 4 -1 0 1 7 4 6 3 3 4 -0
1 2 1 2 1 1 0 1 1 -2 1 -1 5 -3 1 4 7 9 4 2 1 4
1 1 2 2 -0 -0 -0 0 -2 1 -4 1 10 1 -7 -1 6 4 2 4 5 3
-0 -1 -4 -1 -1 -3 -3 -4 -0 2 -2 -2 7 -0 -3 -14 2 6 5 3 3 3
0 -1 2 2 2 -0 -5 -3 -1 -0 4 3 3 2 -16 -6 -4 1 3 4 3 2
-0 4 -1 0 -2 -5 -0 -5 -2 1 2 0 10 1 4 -4 -1 1 3 4 3 3
6 -1 -1 -4 -2 -2 0 1 0 -0 2 0 9 -9 -5 1 1 4 0 4 4 0
-1 -3 -5 -3 -2 -1 -1 -2 0 1 0 -2 -7 -1 -1 -4 6 2 3 3 3 1
-0 -2 -5 1 2 1 -1 2 -1 -1 1 -10 -8 2 3 -2 2 2 1 3 2 2
-0 -2 -0 1 -1 -1 1 0 -2 -0 1 -7 -5 2 -2 -1 3 3 2 3 -0 -3
0 -1 -1 -0 -1 -2 -0 -4 -2 -0 -2 0 -1 0 -0 -2 -8 1 2 -3 -1 -0
-0 -3 -2 -1 -1 -0 -1 -1 -1 -1 -2 -1 -2 -2 2 3 2 -1 0 1 0 -0
Height
1469 1469 1468 1468 1469 1470 1471 1471 1470 1467 1467 1467 1468 1469 1471 1471 1472 1472 1473 1476 1477 1478
1465 1465 1463 1463 1463 1464 1465 1465 1465 1464 1461 1460 1461 1463 1464 1464 1464 1464 1465 1467 1469 1472
1461 1460 1459 1459 1458 1458 1458 1459 1459 1458 1457 1455 1454 1455 1458 1458 1458 1457 1458 1459 1461 1462
1458 1457 1456 1455 1455 1453 1453 1452 1451 1451 1450 1450 1450 1449 1451 1454 1453 1452 1451 1452 1453 1456
1455 1454 1453 1452 1451 1449 1449 1448 1446 1445 1444 1444 1444 1441 1445 1449 1449 1446 1447 1447 1447 1450
1452 1451 1449 1448 1446 1445 1444 1444 1442 1440 1439 1439 1440 1439 1439 1444 1447 1444 1442 1442 1442 1444
1448 1447 1445 1443 1441 1439 1440 1440 1439 1438 1437 1436 1435 1434 1436 1441 1441 1441 1439 1438 1439 1442
1446 1444 1442 1440 1440 1439 1438 1437 1437 1435 1434 1433 1432 1432 1432 1435 1437 1438 1438 1438 1439 1442
1443 1441 1440 1440 1439 1438 1436 1435 1434 1433 1431 1431 1429 1431 1433 1434 1435 1435 1437 1439 1439 1441
1443 1442 1441 1440 1439 1438 1437 1436 1434 1433 1432 1430 1432 1434 1435 1438 1439 1439 1440 1441 1442 1442
1443 1442 1442 1441 1440 1439 1438 1437 1437 1436 1436 1434 1437 1441 1441 1441 1443 1443 1442 1443 1443 1443
1444 1443 1443 1443 1442 1442 1441 1440 1441 1441 1440 1442 1443 1444 1444 1445 1445 1446 1445 1444 1443 1443
1446 1446 1446 1446 1446 1445 1445 1445 1446 1446 1446 1446 1446 1447 1447 1446 1446 1446 1446 1445 1444 1444
1449 1449 1450 1449 1449 1450 1450 1450 1450 1450 1450 1449 1449 1448 1448 1448 1447 1447 1446 1445 1444 1443